Starlink 11116

operational
NORAD ID: 60045 Int'l Des: 2024-112 Owner: SPXS Country: US Constellation: starlink
LEOCIRCULAR

关于 Starlink 11116

正在加载描述...

实时位置

正在加载3D地球...

即将过境

高度历史

Altitude vs Time

uPlot chart will show altitude changes over time

两行轨道根数

1 60045U 24112H 25306.36197806 .00000966 00000-0 12838-4 0 9998
2 60045 53.1598 173.8835 0001561 101.0112 259.1082 15.69708052 80987
Epoch: Nov 2, 2025 • Age: 30 hours

当前状态

高度 375.0 km
速度 7.68 km/s
星下点 -42.60°S, 143.79°W
发射日期 Jun 8, 2024
运行时间 1.4 years
类型 internet

技术详情

分类 Payload
质量 960.00 kg
干质量 910.00 kg
总质量 960.00 kg
长度 0.30 m
直径 4.10 m
跨度 29.00 m
形状 Box + pan
制造商 SPXS
平台类型 Starlink V2MD
阶段状态 In Orbit
所有者/国家 SPXS/US

大型星座

Loading constellations...